Regional Weather Roundup
Issued by NWS Raleigh/Durham, NC

Current Version | Previous Version | Text Only | Print | Product List | Glossary On
Versions: 1 2 3 4 5 6 7 8 9 10 11 12 13 14 15 16 17 18 19 20 21 22 23 24 25 26 27 28 29 30 31 32 33 34 35 36 37 38 39 40 41 42 43 44 45 46 47 48 49 50
947 ASUS42 KRAH 170610 RWRRAH NORTH CAROLINA WEATHER ROUNDUP NATIONAL WEATHER SERVICE RALEIGH NC 100 AM EST TUE JAN 17 2017 NOTE: "FAIR" INDICATES FEW OR NO CLOUDS BELOW 12,000 FEET WITH NO SIGNIFICANT WEATHER AND/OR OBSTRUCTIONS TO VISIBILITY. NCZ001-053-055-056-065-067-170700- WESTERN NORTH CAROLINA CITY SKY/WX TMP DP RH WIND PRES REMARKS ASHEVILLE CLOUDY 50 48 93 S6 30.27S FOG JEFFERSON FOG 44 44 100 W3 30.24F VSB 1/4 HICKORY CLOUDY 48 48 100 CALM 30.27F FOG RUTHERFORDTON RAIN 49 49 100 S3 30.28F MOUNT AIRY CLOUDY 48 46 93 CALM 30.28F FOG BOONE MOCLDY 49 48 96 N3 30.24F $$ NCZ021-022-025-041-071-084-088-170700- CENTRAL NORTH CAROLINA CITY SKY/WX TMP DP RH WIND PRES REMARKS CHARLOTTE CLOUDY 50 47 89 SE6 30.28F GREENSBORO CLOUDY 46 43 89 SW7 30.27F WINSTON-SALEM CLOUDY 48 44 86 SW5 30.28F RALEIGH-DURHAM CLOUDY 48 41 76 SW7 30.30F FORT BRAGG CLOUDY 49 45 85 N3 30.28F FAYETTEVILLE CLOUDY 50 46 86 N3 30.28F BURLINGTON CLOUDY 45 41 86 S3 30.28F LAURINBURG CLOUDY 50 46 86 CALM 30.30F $$ NCZ011-015-027-028-043-044-047-080-103-170700- NORTHEASTERN NORTH CAROLINA CITY SKY/WX TMP DP RH WIND PRES REMARKS ROCKY MT-WILSO CLOUDY 47 44 90 CALM 30.30F GREENVILLE CLOUDY 46 45 93 CALM 30.31F WASHINGTON CLOUDY 45 40 82 CALM 30.31F ELIZABETH CITY CLOUDY 38 36 92 CALM 30.31F MANTEO PTCLDY 40 39 95 N3 30.30F CAPE HATTERAS MOCLDY 47 43 86 N5 30.29F $$ NCZ078-087-090-091-093-098-101-170700- SOUTHEASTERN NORTH CAROLINA CITY SKY/WX TMP DP RH WIND PRES REMARKS LUMBERTON MOCLDY 49 47 93 NW3 30.28F GOLDSBORO CLOUDY 50 47 88 CALM 30.27F KENANSVILLE CLOUDY 50 45 81 CALM 30.29F NEW BERN CLOUDY 46 43 89 CALM 30.31F CHERRY POINT CLOUDY 47 43 86 CALM 30.31F BEAUFORT CLOUDY 48 43 82 N5 30.29F JACKSONVILLE CLOUDY 49 47 93 NE3 30.29F WILMINGTON CLOUDY 51 48 89 NE3 30.29F $$

USA.gov is the U.S. government's official web portal to all federal, state and local government web resources and services.